DW9029 Weather Reports


Display with metric or nautical units.
time (UTC)temp
F
wind
direction
speed
MPH
gust
MPH
rain 1hr
in
rain 24hr
in
rain mn
in
humidity
%
barometer
mb
20260905154404 93 102 0.0 0.0 0.00 0.00 0.00 44 1015.0
20260905153404 93 131 0.0 0.0 0.00 0.00 0.00 45 1015.1
20260905151904 93 119 0.0 0.0 0.00 0.00 0.00 45 1015.5
20260905151404 93 120 0.0 0.0 0.00 0.00 0.00 45 1015.6
20260905144904 93 95 0.0 1.0 0.00 0.00 0.00 44 1015.8
20260905144404 93 71 0.0 0.0 0.00 0.00 0.00 43 1015.9
20260905143905 94 126 1.0 3.0 0.00 0.00 0.00 43 1015.9
20260905143404 94 144 0.0 3.0 0.00 0.00 0.00 43 1015.9
20260905141905 93 46 0.0 0.0 0.00 0.00 0.00 43 1016.0
20260905141404 93 107 0.0 0.0 0.00 0.00 0.00 44 1016.0
20260905140904 93 54 0.0 0.0 0.00 0.00 0.00 44 1016.0
20260905140404 93 48 0.0 0.0 0.00 0.00 0.00 44 1016.1
20260905134905 92 86 0.0 0.0 0.00 0.00 0.00 46 1016.2
20260905134405 92 76 0.0 1.0 0.00 0.00 0.00 46 1016.3
20260905133905 92 85 0.0 0.0 0.00 0.00 0.00 46 1016.4
20260905131905 91 313 1.0 3.0 0.00 0.00 0.00 48 1016.5
20260905131404 90 44 0.0 3.0 0.00 0.00 0.00 50 1016.5
20260905130905 90 23 0.0 0.0 0.00 0.00 0.00 51 1016.5
20260905130404 89 357 0.0 0.0 0.00 0.00 0.00 53 1016.5
20260905124904 88 36 0.0 1.0 0.00 0.00 0.00 55 1016.5
20260905124404 87 44 0.0 0.0 0.00 0.00 0.00 55 1016.6
20260905123904 87 44 0.0 0.0 0.00 0.00 0.00 56 1016.8
20260905123405 87 44 0.0 0.0 0.00 0.00 0.00 56 1016.7
20260905121904 86 24 0.0 0.0 0.00 0.00 0.00 58 1016.7
20260905121404 86 6 0.0 3.0 0.00 0.00 0.00 59 1016.7
20260905120904 85 5 1.0 5.0 0.00 0.00 0.00 59 1016.7
20260905120404 85 18 0.0 8.0 0.00 0.00 0.00 59 1016.6
20260905114404 86 8 5.0 8.0 0.00 0.00 0.00 58 1016.9
20260905113405 87 28 0.0 3.0 0.00 0.00 0.00 56 1017.1
20260905111905 87 24 0.0 0.0 0.00 0.00 0.00 55 1017.3
20260905111405 87 17 0.0 0.0 0.00 0.00 0.00 55 1017.3
20260905110904 87 54 0.0 0.0 0.00 0.00 0.00 55 1017.3
20260905110404 87 54 0.0 0.0 0.00 0.00 0.00 56 1017.4
20260905104904 87 32 0.0 0.0 0.00 0.00 0.00 58 1017.4
20260905103904 86 87 0.0 0.0 0.00 0.00 0.00 57 1017.4
20260905103404 86 100 0.0 0.0 0.00 0.00 0.00 58 1017.5
20260905100905 84 105 0.0 0.0 0.00 0.00 0.00 61 1017.3
20260905100405 84 105 0.0 0.0 0.00 0.00 0.00 61 1017.4
20260905094405 83 63 0.0 0.0 0.00 0.00 0.00 61 1017.1
20260905093904 83 63 0.0 0.0 0.00 0.00 0.00 62 1017.1
20260905093405 83 58 0.0 3.0 0.00 0.00 0.00 64 1016.9
20260905091904 84 48 1.0 6.0 0.00 0.00 0.00 60 1016.7
20260905091404 84 49 1.0 6.0 0.00 0.00 0.00 59 1016.7
20260905090904 84 25 3.0 6.0 0.00 0.00 0.00 58 1016.6
20260905090405 84 44 1.0 5.0 0.00 0.00 0.00 59 1016.7
20260905084904 85 60 0.0 0.0 0.00 0.00 0.00 57 1016.5
20260905083904 84 344 0.0 0.0 0.00 0.00 0.00 57 1016.4
20260905083405 83 34 0.0 6.0 0.00 0.00 0.00 59 1016.4
20260905081904 83 330 1.0 9.0 0.00 0.00 0.00 61 1016.4
20260905081404 83 343 2.0 7.0 0.00 0.00 0.00 63 1016.7
20260905080905 83 336 2.0 7.0 0.00 0.00 0.00 62 1016.7
20260905080405 83 13 0.0 3.0 0.00 0.00 0.00 61 1016.9
20260905074405 84 49 0.0 0.0 0.00 0.00 0.00 57 1016.8
20260905073904 84 53 0.0 3.0 0.00 0.00 0.00 57 1016.8
20260905073405 85 56 2.0 5.0 0.00 0.00 0.00 57 1016.6
20260905071404 84 332 0.0 0.0 0.00 0.00 0.00 56 1016.5
20260905070905 84 332 0.0 0.0 0.00 0.00 0.00 57 1016.4
20260905064905 83 324 0.0 3.0 0.00 0.00 0.00 59 1016.2
20260905064404 83 318 0.0 1.0 0.00 0.00 0.00 60 1016.2
20260905063904 83 287 0.0 0.0 0.00 0.00 0.00 60 1016.1
20260905063404 83 264 2.0 6.0 0.00 0.00 0.00 60 1016.0
20260905061904 82 284 0.0 0.0 0.00 0.00 0.00 61 1015.7
20260905061405 82 276 1.0 5.0 0.00 0.00 0.00 61 1015.8
20260905060904 82 277 0.0 1.0 0.00 0.00 0.00 61 1015.8
20260905060405 83 267 1.0 10.0 0.00 0.00 0.00 61 1015.7
20260905054904 83 246 2.0 8.0 0.00 0.00 0.00 60 1015.8
20260905054405 84 244 1.0 6.0 0.00 0.00 0.00 60 1015.7
20260905053905 84 247 3.0 12.0 0.00 0.00 0.00 61 1015.7
20260905053405 83 248 2.0 8.0 0.00 0.00 0.00 62 1015.6
20260905051904 83 0 0.0 0.0 0.00 0.00 0.00 61 1014.9
20260905051404 83 16 0.0 0.0 0.00 0.00 0.00 61 1014.9
20260905050904 83 31 0.0 0.0 0.00 0.00 0.00 61 1014.8
20260905050404 83 355 0.0 0.0 0.00 0.00 0.00 60 1014.7
20260905044905 84 328 0.0 0.0 0.00 0.00 0.00 61 1014.6
20260905044404 84 314 0.0 0.0 0.00 0.00 0.00 61 1014.6
20260905043904 84 314 0.0 0.0 0.00 0.00 0.00 60 1014.6
20260905041905 83 343 0.0 0.0 0.00 0.00 0.00 61 1014.5
20260905041405 83 344 0.0 0.0 0.00 0.00 0.00 61 1014.5
20260905034904 84 13 4.0 8.0 0.00 0.00 0.00 60 1014.2
20260905034405 84 11 2.0 8.0 0.00 0.00 0.00 59 1014.2
20260905033905 84 349 1.0 6.0 0.00 0.00 0.00 59 1014.2
20260905033404 84 336 0.0 0.0 0.00 0.00 0.00 59 1014.2
20260905031904 84 315 0.0 0.0 0.00 0.00 0.00 60 1014.0
20260905031404 84 290 0.0 0.0 0.00 0.00 0.00 61 1014.1
20260905030904 84 283 0.0 0.0 0.00 0.00 0.00 61 1014.1
20260905030405 84 283 0.0 0.0 0.00 0.00 0.00 61 1014.2
20260905024405 84 282 0.0 0.0 0.00 0.00 0.00 61 1014.5
20260905023904 84 282 0.0 0.0 0.00 0.00 0.00 61 1014.5
20260905023404 84 282 0.0 0.0 0.00 0.00 0.00 60 1014.5
20260905021905 85 282 0.0 0.0 0.00 0.00 0.00 59 1014.5
20260905021405 85 283 0.0 0.0 0.00 0.00 0.00 59 1014.4
20260905014904 84 249 0.0 0.0 0.00 0.00 0.00 60 1014.7
20260905013905 84 189 0.0 0.0 0.00 0.00 0.00 62 1014.6
20260905013404 84 189 0.0 0.0 0.00 0.00 0.00 62 1014.6
20260905011904 84 193 0.0 0.0 0.00 0.00 0.00 61 1014.7
20260905011404 84 188 0.0 0.0 0.00 0.00 0.00 62 1014.6
20260905010904 84 159 0.0 0.0 0.00 0.00 0.00 62 1014.7
20260905010404 84 134 0.0 0.0 0.00 0.00 0.00 61 1014.7
20260905004904 85 165 0.0 0.0 0.00 0.00 0.00 59 1014.5
20260905004404 85 165 0.0 0.0 0.00 0.00 0.00 59 1014.9
20260905003904 85 195 0.0 0.0 0.00 0.00 0.00 59 1014.9
20260905001905 84 230 0.0 0.0 0.00 0.00 0.00 60 1014.9
20260905001404 84 192 0.0 0.0 0.00 0.00 0.00 61 1015.1
20260905000905 84 192 0.0 5.0 0.00 0.00 0.00 60 1015.1
20260905000404 85 176 2.0 7.0 0.00 0.00 0.00 60 1015.4
20260904234405 85 165 0.0 0.0 0.00 0.00 0.00 61 1014.9
20260904231404 89 170 0.0 0.0 0.00 0.00 0.00 48 1014.8
20260904230905 90 193 0.0 0.0 0.00 0.00 0.00 47 1014.9
20260904230404 90 274 0.0 1.0 0.00 0.00 0.00 46 1014.7
20260904224904 90 233 0.0 1.0 0.00 0.00 0.00 46 1014.8
20260904224405 90 286 3.0 8.0 0.00 0.00 0.00 47 1014.6
20260904223904 89 255 4.0 9.0 0.00 0.00 0.00 48 1014.8
20260904223404 89 268 2.0 20.0 0.00 0.00 0.00 49 1014.8
20260904221904 87 211 1.0 9.0 0.00 0.00 0.00 58 1014.7
20260904221404 87 318 0.0 3.0 0.00 0.00 0.00 58 1014.5
20260904220405 88 214 2.0 12.0 0.00 0.00 0.00 55 1015.3
20260904214404 91 179 0.0 3.0 0.00 0.00 0.00 47 1014.7
20260904213905 91 355 0.0 0.0 0.00 0.00 0.00 46 1014.5
20260904213404 91 355 0.0 0.0 0.00 0.00 0.00 46 1014.3
20260904211905 92 59 0.0 0.0 0.00 0.00 0.00 46 1014.5
20260904211404 92 18 0.0 0.0 0.00 0.00 0.00 44 1014.5
20260904210404 92 277 1.0 3.0 0.00 0.00 0.00 44 1015.1
20260904204904 93 202 0.0 0.0 0.00 0.00 0.00 44 1015.1
20260904204404 94 199 0.0 1.0 0.00 0.00 0.00 42 1015.0
20260904203904 94 224 1.0 5.0 0.00 0.00 0.00 42 1015.0
20260904203404 94 213 0.0 0.0 0.00 0.00 0.00 41 1014.9
20260904201904 94 342 0.0 0.0 0.00 0.00 0.00 41 1014.6
20260904201404 94 342 0.0 0.0 0.00 0.00 0.00 42 1014.5
20260904200904 94 342 0.0 0.0 0.00 0.00 0.00 42 1014.5
20260904200405 94 342 0.0 0.0 0.00 0.00 0.00 42 1014.4
20260904194904 94 342 0.0 0.0 0.00 0.00 0.00 41 1014.2
20260904194404 94 342 0.0 0.0 0.00 0.00 0.00 41 1014.1
20260904193906 94 339 0.0 0.0 0.00 0.00 0.00 41 1014.0
20260904193405 94 314 0.0 7.0 0.00 0.00 0.00 41 1013.9
20260904191904 94 284 0.0 3.0 0.00 0.00 0.00 42 1013.8
20260904191405 94 282 1.0 8.0 0.00 0.00 0.00 42 1013.8
20260904190905 94 281 2.0 7.0 0.00 0.00 0.00 42 1013.8
20260904184404 94 275 6.0 14.0 0.00 0.00 0.00 44 1013.9
20260904183905 94 262 9.0 14.0 0.00 0.00 0.00 44 1013.9
20260904183404 94 265 6.0 16.0 0.00 0.00 0.00 45 1013.9
20260904181904 95 260 4.0 13.0 0.00 0.00 0.00 45 1014.0
20260904181405 95 266 5.0 15.0 0.00 0.00 0.00 44 1014.0
20260904180905 96 272 6.0 20.0 0.00 0.00 0.00 44 1014.0
20260904174905 96 225 0.0 7.0 0.00 0.00 0.00 50 1014.0
20260904174405 96 219 1.0 6.0 0.00 0.00 0.00 52 1013.9
20260904173905 96 226 5.0 9.0 0.00 0.00 0.00 54 1013.9
20260904173404 95 199 0.0 5.0 0.00 0.00 0.00 56 1013.9
20260904170904 96 182 3.0 8.0 0.00 0.00 0.00 53 1013.8
20260904170404 96 168 1.0 7.0 0.00 0.00 0.00 53 1013.8
20260904164905 98 187 1.0 6.0 0.00 0.00 0.00 51 1013.9
20260904163904 99 201 2.0 6.0 0.00 0.00 0.00 49 1013.9
20260904161904 99 201 3.0 6.0 0.00 0.00 0.00 48 1014.1
20260904161404 100 185 2.0 6.0 0.00 0.00 0.00 47 1014.1
20260904160904 100 258 0.0 3.0 0.00 0.00 0.00 44 1014.1
20260904160404 100 189 0.0 6.0 0.00 0.00 0.00 45 1014.2
20260904154905 101 17 0.0 0.0 0.00 0.00 0.00 40 1014.2